Regional Weather Roundup
Issued by NWS

Home | Current Version | Previous Version | Text Only | Print | Product List | Glossary Off
Versions: 1 2 3 4 5 6 7 8 9 10 11 12 13 14 15 16 17 18 19 20 21 22 23 24 25 26 27 28 29 30 31 32 33 34 35 36 37 38 39 40 41 42 43 44 45 46 47 48 49 50

000
ASUS45 KTFX 201504
RWRMT
MONTANA HOURLY WEATHER ROUNDUP
NATIONAL WEATHER SERVICE GREAT FALLS MT
904 AM MDT SUN APR 20 2014

NOTE: "FAIR" INDICATES FEW OR NO CLOUDS BELOW 12000 FEET WITH NO
SIGNIFICANT WEATHER AND/OR OBSTRUCTIONS TO VISIBILITY.

* THESE STATIONS ARE NOT UNDER NWS QUALITY CONTROL. THEY DO NOT
   REPORT WEATHER SUCH AS PRECIPITATION OR FOG.

MTZ001>007-043-201600-
WEST OF THE DIVIDE
CITY           SKY/WX    TMP DP  RH WIND       PRES   REMARKS
KALISPELL      CLOUDY    43  30  60 S9        30.17R
MISSOULA       CLOUDY    46  27  48 W8        30.25R
BUTTE          SUNNY     39  25  57 VRB6      30.17R WCI  35
MULLAN PASS    LGT SNOW  27  23  85 VRB3      30.18R
* ESSEX        N/A       36  31  82 SE1G8      N/A
* LINCOLN      N/A       40  23  51 SW6G14     N/A   WCI  36
* LOOKOUT PASS N/A       34  25  70 NE2        N/A
* POLSON       N/A       38  27  65 E3         N/A
* SEELEY LAKE  N/A       42  22  45 SW2        N/A
* THOMP F APT  SUNNY     41  24  51 NW9G21     N/A
$$

MTZ008-052>055-201600-
SOUTHWEST MONTANA
CITY           SKY/WX    TMP DP  RH WIND       PRES   REMARKS
BOZEMAN        PTCLDY    48  27  44 NW5       30.14R
DILLON         PTCLDY    45  16  31 W17       30.16R
W YELLOWSTONE  N/A       43  29  58 SW4G12     N/A
* THREE FORKS  PTSUNNY   46  34  63 SE6        N/A
* BOULDER HILL N/A       39  22  51 S6G14      N/A   WCI  35
* MONIDA PASS  N/A       38  25  60 NW13       N/A   WCI  30
* RAYNOLDS PAS N/A       40 -12  10 VRB10      N/A   WCI  34
* WHITEHALL    N/A       45  24  44 NW8G15     N/A
* WISE RIVER   N/A       37  21  52 W12G21     N/A   WCI  29
$$

MTZ009>010-012-014-046-048-049-054-201600-
EAST SLOPES AND CENTRAL MONTANA
CITY           SKY/WX    TMP DP  RH WIND       PRES   REMARKS
CUT BANK       SUNNY     45  27  49 W30G46    29.97R
GREAT FALLS    SUNNY     48  19  32 SW25G31   30.04R
HELENA         SUNNY     48  23  37 W12G21    30.13R
MALMSTROM AFB  SUNNY     48  19  32 SW21G31   30.01F
* CONRAD       SUNNY     43  34  71 S15G24     N/A
* DEARBORN     N/A       47  20  34 S8G19      N/A
* MONARCH      N/A       40  14  35 SW21G28    N/A   WCI  30
* PENDROY      N/A       44  24  45 W37G44     N/A
* ROGERS PASS  N/A       36  17  46 N4G19      N/A
* SAINT MARY   N/A       35  30  82 S12G26     N/A   WCI  27
* SWEET GRASS  N/A       43  29  58 SW28G39    N/A
$$

MTZ011-013-016-021-035-040-045-047-050-051-201600-
NORTH CENTRAL MONTANA
CITY           SKY/WX    TMP DP  RH WIND       PRES   REMARKS
HAVRE          PTCLDY    48  28  46 W20G31    29.96R
LEWISTOWN      SUNNY     48  16  28 W32G40    30.02R
* CHESTER      N/A       45  29  54 W19G30     N/A
* DENTON       N/A       50  23  35 SW36G46    N/A
* GEYSER       N/A       46  20  36 SW33G40    N/A
* JUDITH GAP   N/A       46  24  42 NW12G17    N/A
* LOMA         N/A       51  21  31 SW24G31    N/A
$$

MTZ017>020-022>027-061-062-201600-
NORTHEAST MONTANA
CITY           SKY/WX    TMP DP  RH WIND       PRES   REMARKS
GLASGOW        PTCLDY    52  30  43 NW16G25   29.90R
GLENDIVE       CLOUDY    50  34  54 S6        29.90R
JORDAN         PTSUNNY   54  27  35 W23G28    29.93R
SIDNEY         CLOUDY    46  34  63 S9        29.87R
WOLF POINT     CLOUDY    46  32  58 W6        29.86R
* BEAVER HILL  N/A       57  32  39 S22        N/A
* CIRCLE       N/A       52  31  45 W11G22     N/A
* LINDSAY DVD  N/A       52  27  38 W26G35     N/A
* NAVAJO       N/A       44  33  65 SE2        N/A
* SACO         N/A       52  29  41 W19G30     N/A
$$

MTZ028>042-056>058-201600-
SOUTHCENTRAL AND SOUTHEAST MONTANA
CITY           SKY/WX    TMP DP  RH WIND       PRES   REMARKS
BAKER          CLOUDY    54  36  51 SE6       29.90R
BILLINGS       PTSUNNY   52  30  43 NW16G25   30.02R
LIVINGSTON     SUNNY     50  28  43 W13G22    30.08R
MILES CITY     CLOUDY    52  28  40 NW18      29.94R
* LAUREL APT   PTCLDY    50  28  43 NW10G17    N/A
* ROUNDUP APT  PTCLDY    45  28  51 N/A        N/A
* HYSHAM       N/A       51  25  36 W11G17     N/A
* LAME DEER    N/A       49  25  39 N12G22     N/A
* REED POINT   N/A       52  30  43 W27G37     N/A
* ROSCOE HILL  N/A       48  21  34 N/A        N/A
$$

REGIONAL REPORTS...DAKOTAS
CITY           SKY/WX    TMP DP  RH WIND       PRES   REMARKS
WILLISTON      PTSUNNY   52  32  47 S8        29.84F
DICKINSON      PTSUNNY   55  28  35 S13       29.87S
CROSBY         PTSUNNY   43  39  86 E3        29.84S
TIOGA          SUNNY     52  32  47 S8        29.88F
WATFORD CITY   SUNNY     50  32  50 SE6       29.83F
BISMARCK       PTCLDY    54 N/A N/A SE10      29.95F
GRAND FORKS    SUNNY     46  36  68 S5        30.02F
FARGO          SUNNY     54  36  51 S7        30.01F
BUFFALO SD     PTCLDY    55  30  39 S9        29.85S
RAPID CITY     SUNNY     55  36  49 CALM      29.91S
$$

REGIONAL REPORTS...WYOMING/IDAHO/WASHINGTON
CITY           SKY/WX    TMP DP  RH WIND       PRES   REMARKS
GILLETTE       PTCLDY    57  39  51 CALM      29.95R
SHERIDAN       CLOUDY    52  36  55 W13       29.99R
CODY           PTSUNNY   45  28  51 NE9       30.02R
YELLOWSTONE LA SUNNY     39  27  62 VRB5      30.16R WCI  35
SALMON         SUNNY     46  23  40 CALM      30.20R
MULLAN PASS    LGT SNOW  27  23  85 VRB3      30.18S
SPOKANE        PTCLDY    39  34  82 S12       30.24R WCI  32
$$

REGIONAL REPORTS...SASKATCHEWAN
CITY           SKY/WX    TMP DP  RH WIND       PRES   REMARKS
SWIFT CURRENT  LGT RAIN  46  36  68 W20       29.77F

$$




USA.gov is the U.S. government's official web portal to all federal, state and local government web resources and services.